Regional Weather Roundup
Issued by NWS

Home | Current Version | Previous Version | Graphics & Text | Print | Product List | Glossary On
Versions: 1 2 3 4 5 6 7 8 9 10 11 12 13 14 15 16 17 18 19 20 21 22 23 24 25 26 27 28 29 30 31 32 33 34 35 36 37 38 39 40 41 42 43 44 45 46 47 48 49 50
616
ASUS45 KSLC 091610
RWRUT

UTAH REGIONAL WEATHER ROUNDUP
NATIONAL WEATHER SERVICE SALT LAKE CITY UT
900 AM MST TUE FEB 09 2016

UTZ001>011-023>025-091700-

NORTHERN UTAH

CITY           SKY/WX    TMP DP  RH WIND       PRES   REMARKS
BRIGHAM CITY     N/A     13   9  84 CALM      30.62R
DUGWAY         FOG       26  25  98 E2        30.61  VSB 3/16
HILL AFB       SUNNY     26  16  66 E14       30.58S WCI  14
LOGAN          SNOW      12  10  92 CALM      30.63S VSB 1/4
OGDEN          SUNNY     25  19  78 S8        30.59S WCI  16
PROVO AIRPORT  FOG      N/A N/A N/A CALM      30.61S VSB 1/4
SALT LAKE CITY MOSUNNY   28  23  81 S7        30.60S FOG     WCI  21
VERNAL         CLOUDY    14  11  87 CALM      30.57S FOG
WENDOVER       CLOUDY    27  25  93 CALM      30.61S
HEBER CITY     FOG        9   5  85 CALM      30.59S VSB<1/4
WEST JORDAN    SUNNY     27  23  86 S6        30.60S WCI  20

$$

UTZ012>022-026-027-091700-

SOUTHERN/CENTRAL UTAH

CITY           SKY/WX    TMP DP  RH WIND       PRES   REMARKS
BLANDING       MOSUNNY   35  19  52 CALM      30.53R
BRYCE CANYON   MOSUNNY   17  10  74 W8        30.54S WCI   7
CEDAR CITY     MOSUNNY   25  19  78 CALM      30.53S
DELTA          CLOUDY     7   4  91 CALM      30.61S VSB 1/4
HANKSVILLE     PTSUNNY   21  21 100 CALM      30.58R
MILFORD        SNOW       5   2  87 S3        30.58R VSB<1/4
MOAB/CYNLANDS  MOSUNNY   20  20 100 CALM      30.55R
PRICE          MOSUNNY   30  18  60 CALM      30.51R
ST GEORGE      SUNNY     37  25  60 CALM      30.49S
KANAB          SUNNY     45  27  49 N7        30.50R

$$

REGIONAL REPORTS     COLORADO/ARIZONA

CITY           SKY/WX    TMP DP  RH WIND       PRES   REMARKS
CRAIG, CO      CLOUDY     1   0  95 CALM      30.56R FOG
GRAND JUNCTION CLOUDY    25  20  81 S7        30.54S WCI  17
RIFLE          CLOUDY    16  11  80 SE5       30.57R WCI   9
MONTROSE       CLOUDY    23  14  68 S7        30.57R WCI  15
CORTEZ         CLOUDY    28  16  60 NE5       30.46R WCI  23
PAGE, AZ       SUNNY     37  28  70 CALM      30.50R
GRAND CANYON   SUNNY     46  20  35 NE12      30.47R
KINGMAN          N/A     50  25  37 NE8       30.37R
FLAGSTAFF      SUNNY     44  15  31 E14       30.47R

$$

REGIONAL REPORTS    NEVADA/IDAHO/WYOMING

CITY           SKY/WX    TMP DP  RH WIND       PRES   REMARKS
LAS VEGAS, NV  SUNNY     52  27  38 SW3       30.36R
ELY            PTSUNNY    8   3  80 S14       30.56R WCI  -8
ELKO           SNOW       9   7  92 E5        30.59S VSB 1/2 WCI   1
POCATELLO, ID  CLOUDY    21  19  92 E5        30.61R FOG     WCI  15
BURLEY         CLOUDY    26  25  96 NE13      30.56S FOG     WCI  15
EVANSTON, WY   CLOUDY    25  18  74 SW12      30.54S WCI  14
ROCK SPRINGS   CLOUDY    30  23  75 SW15      30.47S WCI  19

$$




USA.gov is the U.S. government's official web portal to all federal, state and local government web resources and services.